Regional Weather Roundup
Issued by NWS Little Rock, AR

Home | Current Version | Previous Version | Text Only | Print | Product List | Glossary Off
Versions: 1 2 3 4 5 6 7 8 9 10 11 12 13 14 15 16 17 18 19 20 21 22 23 24 25 26 27 28 29 30 31 32 33 34 35 36 37 38 39 40 41 42 43 44 45 46 47 48 49 50

000
ASUS44 KLZK 300105
RWRLZK

WEATHER ROUNDUP FOR ARKANSAS
NATIONAL WEATHER SERVICE LITTLE ROCK AR
800 PM CDT SAT AUG 29 2015

NOTE: "FAIR" INDICATES FEW OR NO CLOUDS BELOW 12,000 FEET WITH NO
SIGNIFICANT WEATHER AND/OR OBSTRUCTIONS TO VISIBILITY.

ARZ001-003-010-029-300200-
NORTHWEST ARKANSAS

CITY           SKY/WX    TMP DP  RH WIND       PRES   REMARKS
FAYETTEVILLE   PTCLDY    77  69  76 SE3       29.99S
FORT SMITH     MOCLDY    84  67  56 CALM      29.93S HX  86
BENTONVILLE    PTCLDY    79  66  65 S5        29.99S
ROGERS         MOCLDY    78  69  73 S8        30.00R
SILOAM SPGS    MOCLDY    79  66  65 SE3       29.97R
HIGHFILL       MOCLDY    79  70  74 S6        29.98S
SPRINGDALE     MOCLDY    79  68  69 CALM      30.01S
$$

ARZ004-005-016-300200-
NORTH CENTRAL ARKANSAS

CITY           SKY/WX    TMP DP  RH WIND       PRES   REMARKS
BATESVILLE     MOCLDY    75  70  83 E3        29.99S
FLIPPIN        CLEAR     75  63  64 SE3       29.98S
MTN HOME       CLEAR     73  67  81 SE5       29.99S
$$

ARZ040-041-300200-
WEST CENTRAL ARKANSAS

CITY           SKY/WX    TMP DP  RH WIND       PRES   REMARKS
MENA           PTCLDY    79  72  78 CALM      30.00S
MOUNT IDA      PTCLDY    77  71  82 CALM      29.97F HAZE
$$

ARZ009-017-025-026-028-300200-
NORTHEAST ARKANSAS

CITY           SKY/WX    TMP DP  RH WIND       PRES   REMARKS
JONESBORO      MOCLDY    72  69  90 E3        29.99S
NEWPORT        MOCLDY    77  73  87 SE3       30.00S
WALNUT RIDGE   PTCLDY    77  66  69 CALM      29.99S
BLYTHEVILLE    CLOUDY    80  72  76 CALM      30.00S
$$

ARZ022-023-033-042-044-300200-
CENTRAL ARKANSAS

CITY           SKY/WX    TMP DP  RH WIND       PRES   REMARKS
LITTLE ROCK    CLOUDY    82  67  60 CALM      29.98S
N LITTLE ROCK  CLOUDY    78  69  74 CALM      29.98S
JACKSONVILLE   CLOUDY    78  68  71 CALM      29.98S
SEARCY         CLOUDY    76  70  82 CALM      30.00S
HOT SPRINGS    MOCLDY    80  69  69 CALM      29.99S
RUSSELLVILLE   PTCLDY    77  70  79 CALM      29.96F
$$

ARZ036-300200-
EAST ARKANSAS

CITY           SKY/WX    TMP DP  RH WIND       PRES   REMARKS
WEST MEMPHIS   CLOUDY    78  70  76 CALM      29.99S
$$

ARZ050-053-066-070-073-300200-
SOUTHWEST ARKANSAS

CITY           SKY/WX    TMP DP  RH WIND       PRES   REMARKS
ARKADELPHIA    FAIR      80  77  91 CALM      29.97F HX  85
CAMDEN         CLOUDY    81  72  74 CALM      29.97R
TEXARKANA      MOCLDY    83  70  64 CALM      29.97S HX  87
EL DORADO      MOCLDY    82  67  60 N3        29.98R
DE QUEEN       PTCLDY    80  74  81 E5        29.94F HX  85
$$

ARZ056-057-069-300200-
SOUTHEAST ARKANSAS

CITY           SKY/WX    TMP DP  RH WIND       PRES   REMARKS
PINE BLUFF     CLOUDY    78  69  73 E6        29.98S
STUTTGART      CLOUDY    82  64  54 CALM      29.98S
MONTICELLO     CLOUDY    84  66  54 NW5       29.97S HX  86

$$





USA.gov is the U.S. government's official web portal to all federal, state and local government web resources and services.